PWSweather.com
Personal Weather Stations
Station Observations
EA5BZ
Nuevo Altabix, ElcheES

Nuevo AltabixElcheES

Lat: 38.276, Lon: -0.671

Elevation: 0

Station Type: Davis Vantage Pro 2

http://meteoelche.es

High Low Average
Temperature 69.4°F20.8°C 55.9°F13.3°C 61.8°F16.6°C
Dew Point 50.8°F10.4°C 40.7°F4.8°C 46.1°F7.8°C
Winds 20.1 mph 32.3 kmh 1.8 mph 2.9 kmh 11.0 mph SW17.7 kmh SW
Wind Gusts 31.8 mph51.2 kmh 3.1 mph5.0 kmh 17.0 mph27.4 kmh
Humidity 69% 41% 57%
Pressure 30.26 in1024.7 mb 30.08 in1018.6 mb -
Precipitation 0.00 in0.0 mm - -
Hour Temp Dew Point Humidity Winds Wind Gusts Pressure Precip Precip Rate Daily Precip Total
12:00 AM 59.4°F15.2°C 47.2°F8.4°C 64% 4.3 mph SW6.9 kmh SW 10.7 mph17.2 kmh 30.21 in1023.0 mb 0.00 in0.0 mm 0.00 in0.0 mm 0.00 in0.0 mm
12:05 AM 59.4°F15.2°C 47.4°F8.6°C 64% 4.8 mph WSW7.7 kmh WSW 10.7 mph17.2 kmh 30.21 in1023.0 mb 0.00 in0.0 mm 0.00 in0.0 mm 0.00 in0.0 mm
12:10 AM 59.4°F15.2°C 47.2°F8.4°C 64% 6.3 mph WSW10.1 kmh WSW 11.4 mph18.3 kmh 30.20 in1022.7 mb 0.00 in0.0 mm 0.00 in0.0 mm 0.00 in0.0 mm
12:15 AM 59.4°F15.2°C 47.2°F8.4°C 64% 6.6 mph WSW10.6 kmh WSW 10.7 mph17.2 kmh 30.20 in1022.7 mb 0.00 in0.0 mm 0.00 in0.0 mm 0.00 in0.0 mm
12:20 AM 59.4°F15.2°C 47.2°F8.4°C 64% 7.4 mph WSW11.9 kmh WSW 10.1 mph16.3 kmh 30.20 in1022.7 mb 0.00 in0.0 mm 0.00 in0.0 mm 0.00 in0.0 mm
12:25 AM 59.4°F15.2°C 47.2°F8.4°C 64% 7.4 mph WSW11.9 kmh WSW 9.6 mph15.4 kmh 30.20 in1022.7 mb 0.00 in0.0 mm 0.00 in0.0 mm 0.00 in0.0 mm
12:30 AM 59.2°F15.1°C 47.0°F8.3°C 64% 7.6 mph W12.2 kmh W 10.3 mph16.6 kmh 30.19 in1022.4 mb 0.00 in0.0 mm 0.00 in0.0 mm 0.00 in0.0 mm
12:35 AM 59.2°F15.1°C 47.1°F8.4°C 64% 7.5 mph W12.1 kmh W 14.8 mph23.8 kmh 30.19 in1022.4 mb 0.00 in0.0 mm 0.00 in0.0 mm 0.00 in0.0 mm
12:40 AM 59.2°F15.1°C 47.3°F8.5°C 65% 7.4 mph W11.9 kmh W 10.3 mph16.6 kmh 30.19 in1022.4 mb 0.00 in0.0 mm 0.00 in0.0 mm 0.00 in0.0 mm
12:45 AM 59.4°F15.2°C 47.2°F8.4°C 64% 7.4 mph WSW11.9 kmh WSW 10.3 mph16.6 kmh 30.19 in1022.4 mb 0.00 in0.0 mm 0.00 in0.0 mm 0.00 in0.0 mm
12:50 AM 59.4°F15.2°C 47.2°F8.4°C 64% 7.4 mph WSW11.9 kmh WSW 11.9 mph19.2 kmh 30.19 in1022.4 mb 0.00 in0.0 mm 0.00 in0.0 mm 0.00 in0.0 mm
12:55 AM 59.3°F15.2°C 47.1°F8.4°C 64% 7.6 mph WSW12.2 kmh WSW 13.0 mph20.9 kmh 30.19 in1022.4 mb 0.00 in0.0 mm 0.00 in0.0 mm 0.00 in0.0 mm
01:00 AM 59.2°F15.1°C 47.0°F8.3°C 64% 8.1 mph WSW13.0 kmh WSW 13.6 mph21.9 kmh 30.19 in1022.4 mb 0.00 in0.0 mm 0.00 in0.0 mm 0.00 in0.0 mm
01:05 AM 59.3°F15.2°C 47.4°F8.6°C 65% 8.2 mph WSW13.2 kmh WSW 16.3 mph26.2 kmh 30.19 in1022.4 mb 0.00 in0.0 mm 0.00 in0.0 mm 0.00 in0.0 mm
01:10 AM 59.4°F15.2°C 47.3°F8.5°C 64% 8.7 mph WSW14.0 kmh WSW 14.5 mph23.3 kmh 30.18 in1022.0 mb 0.00 in0.0 mm 0.00 in0.0 mm 0.00 in0.0 mm
01:15 AM 59.5°F15.3°C 47.3°F8.5°C 64% 8.7 mph W14.0 kmh W 15.7 mph25.3 kmh 30.18 in1022.0 mb 0.00 in0.0 mm 0.00 in0.0 mm 0.00 in0.0 mm
01:20 AM 59.5°F15.3°C 47.3°F8.5°C 64% 8.5 mph W13.7 kmh W 13.4 mph21.6 kmh 30.18 in1022.0 mb 0.00 in0.0 mm 0.00 in0.0 mm 0.00 in0.0 mm
01:25 AM 59.5°F15.3°C 47.3°F8.5°C 64% 8.3 mph WSW13.4 kmh WSW 10.3 mph16.6 kmh 30.18 in1022.0 mb 0.00 in0.0 mm 0.00 in0.0 mm 0.00 in0.0 mm
01:30 AM 59.4°F15.2°C 47.2°F8.4°C 64% 7.6 mph WSW12.2 kmh WSW 14.8 mph23.8 kmh 30.17 in1021.7 mb 0.00 in0.0 mm 0.00 in0.0 mm 0.00 in0.0 mm
01:35 AM 59.4°F15.2°C 47.2°F8.4°C 64% 8.0 mph WSW12.9 kmh WSW 15.2 mph24.5 kmh 30.17 in1021.7 mb 0.00 in0.0 mm 0.00 in0.0 mm 0.00 in0.0 mm
01:40 AM 59.3°F15.2°C 47.1°F8.4°C 64% 9.2 mph WSW14.8 kmh WSW 14.5 mph23.3 kmh 30.17 in1021.7 mb 0.00 in0.0 mm 0.00 in0.0 mm 0.00 in0.0 mm
01:45 AM 59.2°F15.1°C 47.0°F8.3°C 64% 9.5 mph WSW15.3 kmh WSW 14.1 mph22.7 kmh 30.17 in1021.7 mb 0.00 in0.0 mm 0.00 in0.0 mm 0.00 in0.0 mm
01:50 AM 59.2°F15.1°C 47.0°F8.3°C 64% 10.3 mph WSW16.6 kmh WSW 13.6 mph21.9 kmh 30.17 in1021.7 mb 0.00 in0.0 mm 0.00 in0.0 mm 0.00 in0.0 mm
01:55 AM 59.4°F15.2°C 47.2°F8.4°C 64% 10.4 mph WSW16.7 kmh WSW 16.8 mph27.0 kmh 30.17 in1021.7 mb 0.00 in0.0 mm 0.00 in0.0 mm 0.00 in0.0 mm
02:00 AM 59.5°F15.3°C 47.3°F8.5°C 64% 10.7 mph WSW17.2 kmh WSW 11.9 mph19.2 kmh 30.17 in1021.7 mb 0.00 in0.0 mm 0.00 in0.0 mm 0.00 in0.0 mm
02:05 AM 59.5°F15.3°C 46.9°F8.3°C 63% 10.0 mph WSW16.1 kmh WSW 10.7 mph17.2 kmh 30.17 in1021.7 mb 0.00 in0.0 mm 0.00 in0.0 mm 0.00 in0.0 mm
02:10 AM 59.1°F15.1°C 46.8°F8.2°C 64% 8.1 mph WSW13.0 kmh WSW 11.2 mph18.0 kmh 30.17 in1021.7 mb 0.00 in0.0 mm 0.00 in0.0 mm 0.00 in0.0 mm
02:15 AM 58.4°F14.7°C 46.8°F8.2°C 65% 7.9 mph SW12.7 kmh SW 11.2 mph18.0 kmh 30.17 in1021.7 mb 0.00 in0.0 mm 0.00 in0.0 mm 0.00 in0.0 mm
02:20 AM 57.8°F14.3°C 46.6°F8.1°C 66% 7.4 mph SW11.9 kmh SW 8.7 mph14.0 kmh 30.17 in1021.7 mb 0.00 in0.0 mm 0.00 in0.0 mm 0.00 in0.0 mm
02:25 AM 57.3°F14.1°C 46.6°F8.1°C 67% 7.1 mph SW11.4 kmh SW 7.6 mph12.2 kmh 30.17 in1021.7 mb 0.00 in0.0 mm 0.00 in0.0 mm 0.00 in0.0 mm
02:30 AM 56.9°F13.8°C 46.7°F8.2°C 69% 6.3 mph SW10.1 kmh SW 12.3 mph19.8 kmh 30.16 in1021.3 mb 0.00 in0.0 mm 0.00 in0.0 mm 0.00 in0.0 mm
02:35 AM 56.8°F13.8°C 46.8°F8.2°C 69% 6.4 mph SW10.3 kmh SW 8.5 mph13.7 kmh 30.16 in1021.3 mb 0.00 in0.0 mm 0.00 in0.0 mm 0.00 in0.0 mm
02:40 AM 57.0°F13.9°C 46.9°F8.3°C 69% 6.9 mph WSW11.1 kmh WSW 10.1 mph16.3 kmh 30.16 in1021.3 mb 0.00 in0.0 mm 0.00 in0.0 mm 0.00 in0.0 mm
02:45 AM 57.2°F14.0°C 46.9°F8.3°C 68% 6.8 mph WSW10.9 kmh WSW 10.7 mph17.2 kmh 30.16 in1021.3 mb 0.00 in0.0 mm 0.00 in0.0 mm 0.00 in0.0 mm
02:50 AM 57.4°F14.1°C 46.9°F8.3°C 68% 6.5 mph WSW10.5 kmh WSW 8.7 mph14.0 kmh 30.16 in1021.3 mb 0.00 in0.0 mm 0.00 in0.0 mm 0.00 in0.0 mm
02:55 AM 57.4°F14.1°C 46.8°F8.2°C 68% 6.5 mph WSW10.5 kmh WSW 14.5 mph23.3 kmh 30.16 in1021.3 mb 0.00 in0.0 mm 0.00 in0.0 mm 0.00 in0.0 mm
03:00 AM 57.6°F14.2°C 46.7°F8.2°C 67% 6.5 mph WSW10.5 kmh WSW 12.5 mph20.1 kmh 30.16 in1021.3 mb 0.00 in0.0 mm 0.00 in0.0 mm 0.00 in0.0 mm
03:05 AM 57.7°F14.3°C 46.8°F8.2°C 67% 7.0 mph WSW11.3 kmh WSW 14.1 mph22.7 kmh 30.16 in1021.3 mb 0.00 in0.0 mm 0.00 in0.0 mm 0.00 in0.0 mm
03:10 AM 57.7°F14.3°C 46.5°F8.1°C 66% 8.5 mph WSW13.7 kmh WSW 13.6 mph21.9 kmh 30.16 in1021.3 mb 0.00 in0.0 mm 0.00 in0.0 mm 0.00 in0.0 mm
03:15 AM 57.7°F14.3°C 46.5°F8.1°C 66% 8.5 mph WSW13.7 kmh WSW 13.4 mph21.6 kmh 30.16 in1021.3 mb 0.00 in0.0 mm 0.00 in0.0 mm 0.00 in0.0 mm
03:20 AM 57.9°F14.4°C 46.6°F8.1°C 66% 8.5 mph WSW13.7 kmh WSW 13.0 mph20.9 kmh 30.16 in1021.3 mb 0.00 in0.0 mm 0.00 in0.0 mm 0.00 in0.0 mm
03:25 AM 57.9°F14.4°C 46.6°F8.1°C 66% 8.6 mph WSW13.8 kmh WSW 11.2 mph18.0 kmh 30.15 in1021.0 mb 0.00 in0.0 mm 0.00 in0.0 mm 0.00 in0.0 mm
03:30 AM 57.8°F14.3°C 46.6°F8.1°C 66% 8.7 mph WSW14.0 kmh WSW 12.5 mph20.1 kmh 30.15 in1021.0 mb 0.00 in0.0 mm 0.00 in0.0 mm 0.00 in0.0 mm
03:35 AM 57.7°F14.3°C 46.5°F8.1°C 66% 8.5 mph WSW13.7 kmh WSW 13.0 mph20.9 kmh 30.15 in1021.0 mb 0.00 in0.0 mm 0.00 in0.0 mm 0.00 in0.0 mm
03:40 AM 57.7°F14.3°C 46.5°F8.1°C 66% 8.1 mph WSW13.0 kmh WSW 15.2 mph24.5 kmh 30.15 in1021.0 mb 0.00 in0.0 mm 0.00 in0.0 mm 0.00 in0.0 mm
03:45 AM 57.8°F14.3°C 46.5°F8.1°C 66% 8.2 mph WSW13.2 kmh WSW 16.8 mph27.0 kmh 30.15 in1021.0 mb 0.00 in0.0 mm 0.00 in0.0 mm 0.00 in0.0 mm
03:50 AM 57.9°F14.4°C 46.6°F8.1°C 66% 8.7 mph WSW14.0 kmh WSW 17.9 mph28.8 kmh 30.15 in1021.0 mb 0.00 in0.0 mm 0.00 in0.0 mm 0.00 in0.0 mm
03:55 AM 57.9°F14.4°C 46.2°F7.9°C 65% 9.1 mph WSW14.6 kmh WSW 15.2 mph24.5 kmh 30.15 in1021.0 mb 0.00 in0.0 mm 0.00 in0.0 mm 0.00 in0.0 mm
04:00 AM 57.9°F14.4°C 46.2°F7.9°C 65% 10.1 mph WSW16.3 kmh WSW 14.5 mph23.3 kmh 30.15 in1021.0 mb 0.00 in0.0 mm 0.00 in0.0 mm 0.00 in0.0 mm
04:05 AM 57.9°F14.4°C 46.2°F7.9°C 65% 9.9 mph WSW15.9 kmh WSW 14.5 mph23.3 kmh 30.15 in1021.0 mb 0.00 in0.0 mm 0.00 in0.0 mm 0.00 in0.0 mm
04:10 AM 57.7°F14.3°C 46.1°F7.8°C 65% 9.6 mph WSW15.4 kmh WSW 15.7 mph25.3 kmh 30.14 in1020.7 mb 0.00 in0.0 mm 0.00 in0.0 mm 0.00 in0.0 mm
04:15 AM 57.6°F14.2°C 46.3°F7.9°C 66% 9.6 mph WSW15.4 kmh WSW 14.8 mph23.8 kmh 30.14 in1020.7 mb 0.00 in0.0 mm 0.00 in0.0 mm 0.00 in0.0 mm
04:20 AM 57.6°F14.2°C 46.3°F7.9°C 66% 9.6 mph WSW15.4 kmh WSW 18.1 mph29.1 kmh 30.14 in1020.7 mb 0.00 in0.0 mm 0.00 in0.0 mm 0.00 in0.0 mm
04:25 AM 57.4°F14.1°C 46.1°F7.8°C 66% 9.8 mph WSW15.8 kmh WSW 16.8 mph27.0 kmh 30.14 in1020.7 mb 0.00 in0.0 mm 0.00 in0.0 mm 0.00 in0.0 mm
04:30 AM 57.4°F14.1°C 46.1°F7.8°C 66% 10.3 mph WSW16.6 kmh WSW 17.4 mph28.0 kmh 30.14 in1020.7 mb 0.00 in0.0 mm 0.00 in0.0 mm 0.00 in0.0 mm
04:35 AM 57.4°F14.1°C 46.1°F7.8°C 66% 10.7 mph WSW17.2 kmh WSW 20.4 mph32.8 kmh 30.14 in1020.7 mb 0.00 in0.0 mm 0.00 in0.0 mm 0.00 in0.0 mm
04:40 AM 57.2°F14.0°C 45.9°F7.7°C 66% 11.9 mph WSW19.2 kmh WSW 18.1 mph29.1 kmh 30.14 in1020.7 mb 0.00 in0.0 mm 0.00 in0.0 mm 0.00 in0.0 mm
04:45 AM 57.0°F13.9°C 45.8°F7.7°C 66% 12.0 mph WSW19.3 kmh WSW 17.9 mph28.8 kmh 30.14 in1020.7 mb 0.00 in0.0 mm 0.00 in0.0 mm 0.00 in0.0 mm
04:50 AM 57.0°F13.9°C 45.8°F7.7°C 66% 12.5 mph WSW20.1 kmh WSW 18.6 mph29.9 kmh 30.14 in1020.7 mb 0.00 in0.0 mm 0.00 in0.0 mm 0.00 in0.0 mm
04:55 AM 57.0°F13.9°C 45.8°F7.7°C 66% 12.2 mph WSW19.6 kmh WSW 22.4 mph36.0 kmh 30.13 in1020.3 mb 0.00 in0.0 mm 0.00 in0.0 mm 0.00 in0.0 mm
05:00 AM 57.1°F13.9°C 45.9°F7.7°C 66% 11.4 mph WSW18.3 kmh WSW 21.9 mph35.2 kmh 30.13 in1020.3 mb 0.00 in0.0 mm 0.00 in0.0 mm 0.00 in0.0 mm
05:05 AM 57.2°F14.0°C 45.9°F7.7°C 66% 12.0 mph WSW19.3 kmh WSW 21.3 mph34.3 kmh 30.13 in1020.3 mb 0.00 in0.0 mm 0.00 in0.0 mm 0.00 in0.0 mm
05:10 AM 57.2°F14.0°C 45.9°F7.7°C 66% 13.4 mph WSW21.6 kmh WSW 22.6 mph36.4 kmh 30.12 in1020.0 mb 0.00 in0.0 mm 0.00 in0.0 mm 0.00 in0.0 mm
05:15 AM 57.1°F13.9°C 45.8°F7.7°C 66% 12.9 mph WSW20.8 kmh WSW 17.4 mph28.0 kmh 30.12 in1020.0 mb 0.00 in0.0 mm 0.00 in0.0 mm 0.00 in0.0 mm
05:20 AM 57.0°F13.9°C 45.8°F7.7°C 66% 11.4 mph WSW18.3 kmh WSW 18.1 mph29.1 kmh 30.12 in1020.0 mb 0.00 in0.0 mm 0.00 in0.0 mm 0.00 in0.0 mm
05:25 AM 57.0°F13.9°C 45.8°F7.7°C 66% 11.5 mph WSW18.5 kmh WSW 20.4 mph32.8 kmh 30.12 in1020.0 mb 0.00 in0.0 mm 0.00 in0.0 mm 0.00 in0.0 mm
05:30 AM 56.9°F13.8°C 45.6°F7.6°C 66% 11.9 mph WSW19.2 kmh WSW 21.3 mph34.3 kmh 30.12 in1020.0 mb 0.00 in0.0 mm 0.00 in0.0 mm 0.00 in0.0 mm
05:35 AM 56.8°F13.8°C 45.6°F7.6°C 66% 12.2 mph WSW19.6 kmh WSW 19.2 mph30.9 kmh 30.12 in1020.0 mb 0.00 in0.0 mm 0.00 in0.0 mm 0.00 in0.0 mm
05:40 AM 56.7°F13.7°C 45.6°F7.6°C 66% 13.0 mph WSW20.9 kmh WSW 17.0 mph27.4 kmh 30.12 in1020.0 mb 0.00 in0.0 mm 0.00 in0.0 mm 0.00 in0.0 mm
05:45 AM 56.5°F13.6°C 45.7°F7.6°C 67% 12.2 mph WSW19.6 kmh WSW 18.6 mph29.9 kmh 30.12 in1020.0 mb 0.00 in0.0 mm 0.00 in0.0 mm 0.00 in0.0 mm
05:50 AM 56.5°F13.6°C 45.6°F7.6°C 67% 10.3 mph WSW16.6 kmh WSW 17.4 mph28.0 kmh 30.12 in1020.0 mb 0.00 in0.0 mm 0.00 in0.0 mm 0.00 in0.0 mm
05:55 AM 56.3°F13.5°C 45.5°F7.5°C 67% 10.7 mph WSW17.2 kmh WSW 15.9 mph25.6 kmh 30.11 in1019.6 mb 0.00 in0.0 mm 0.00 in0.0 mm 0.00 in0.0 mm
06:00 AM 56.3°F13.5°C 45.8°F7.7°C 68% 11.9 mph W19.2 kmh W 17.4 mph28.0 kmh 30.11 in1019.6 mb 0.00 in0.0 mm 0.00 in0.0 mm 0.00 in0.0 mm
06:05 AM 56.3°F13.5°C 45.9°F7.7°C 68% 11.1 mph W17.9 kmh W 14.5 mph23.3 kmh 30.11 in1019.6 mb 0.00 in0.0 mm 0.00 in0.0 mm 0.00 in0.0 mm
06:10 AM 56.4°F13.6°C 46.0°F7.8°C 68% 9.2 mph WSW14.8 kmh WSW 14.8 mph23.8 kmh 30.11 in1019.6 mb 0.00 in0.0 mm 0.00 in0.0 mm 0.00 in0.0 mm
06:15 AM 56.5°F13.6°C 46.1°F7.8°C 68% 9.2 mph WSW14.8 kmh WSW 16.8 mph27.0 kmh 30.11 in1019.6 mb 0.00 in0.0 mm 0.00 in0.0 mm 0.00 in0.0 mm
06:20 AM 56.6°F13.7°C 45.9°F7.7°C 67% 9.2 mph WSW14.8 kmh WSW 17.4 mph28.0 kmh 30.11 in1019.6 mb 0.00 in0.0 mm 0.00 in0.0 mm 0.00 in0.0 mm
06:25 AM 56.7°F13.7°C 45.8°F7.7°C 67% 9.6 mph WSW15.4 kmh WSW 14.8 mph23.8 kmh 30.11 in1019.6 mb 0.00 in0.0 mm 0.00 in0.0 mm 0.00 in0.0 mm
06:30 AM 56.6°F13.7°C 45.8°F7.7°C 67% 10.7 mph WSW17.2 kmh WSW 15.2 mph24.5 kmh 30.11 in1019.6 mb 0.00 in0.0 mm 0.00 in0.0 mm 0.00 in0.0 mm
06:35 AM 56.5°F13.6°C 45.9°F7.7°C 68% 9.9 mph WSW15.9 kmh WSW 11.9 mph19.2 kmh 30.11 in1019.6 mb 0.00 in0.0 mm 0.00 in0.0 mm 0.00 in0.0 mm
06:40 AM 56.4°F13.6°C 46.0°F7.8°C 68% 7.6 mph WSW12.2 kmh WSW 15.9 mph25.6 kmh 30.11 in1019.6 mb 0.00 in0.0 mm 0.00 in0.0 mm 0.00 in0.0 mm
06:45 AM 56.2°F13.4°C 45.8°F7.7°C 68% 8.2 mph WSW13.2 kmh WSW 15.9 mph25.6 kmh 30.11 in1019.6 mb 0.00 in0.0 mm 0.00 in0.0 mm 0.00 in0.0 mm
06:50 AM 56.1°F13.4°C 45.7°F7.6°C 68% 9.6 mph WSW15.4 kmh WSW 19.2 mph30.9 kmh 30.11 in1019.6 mb 0.00 in0.0 mm 0.00 in0.0 mm 0.00 in0.0 mm
06:55 AM 56.1°F13.4°C 45.7°F7.6°C 68% 10.0 mph WSW16.1 kmh WSW 17.0 mph27.4 kmh 30.11 in1019.6 mb 0.00 in0.0 mm 0.00 in0.0 mm 0.00 in0.0 mm
07:00 AM 56.0°F13.3°C 45.9°F7.7°C 69% 11.2 mph WSW18.0 kmh WSW 17.0 mph27.4 kmh 30.11 in1019.6 mb 0.00 in0.0 mm 0.00 in0.0 mm 0.00 in0.0 mm
07:05 AM 55.9°F13.3°C 45.9°F7.7°C 69% 11.4 mph WSW18.3 kmh WSW 19.2 mph30.9 kmh 30.11 in1019.6 mb 0.00 in0.0 mm 0.00 in0.0 mm 0.00 in0.0 mm
07:10 AM 56.1°F13.4°C 46.0°F7.8°C 69% 11.9 mph WSW19.2 kmh WSW 21.5 mph34.6 kmh 30.11 in1019.6 mb 0.00 in0.0 mm 0.00 in0.0 mm 0.00 in0.0 mm
07:15 AM 56.1°F13.4°C 46.1°F7.8°C 69% 12.0 mph WSW19.3 kmh WSW 20.8 mph33.5 kmh 30.11 in1019.6 mb 0.00 in0.0 mm 0.00 in0.0 mm 0.00 in0.0 mm
07:20 AM 56.1°F13.4°C 46.1°F7.8°C 69% 12.3 mph WSW19.8 kmh WSW 23.0 mph37.0 kmh 30.11 in1019.6 mb 0.00 in0.0 mm 0.00 in0.0 mm 0.00 in0.0 mm
07:25 AM 56.1°F13.4°C 45.8°F7.7°C 68% 13.4 mph WSW21.6 kmh WSW 24.2 mph38.9 kmh 30.11 in1019.6 mb 0.00 in0.0 mm 0.00 in0.0 mm 0.00 in0.0 mm
07:30 AM 56.3°F13.5°C 45.8°F7.7°C 68% 16.3 mph WSW26.2 kmh WSW 23.0 mph37.0 kmh 30.11 in1019.6 mb 0.00 in0.0 mm 0.00 in0.0 mm 0.00 in0.0 mm
07:35 AM 56.2°F13.4°C 45.7°F7.6°C 68% 15.9 mph WSW25.6 kmh WSW 20.1 mph32.3 kmh 30.11 in1019.6 mb 0.00 in0.0 mm 0.00 in0.0 mm 0.00 in0.0 mm
07:40 AM 56.1°F13.4°C 46.0°F7.8°C 69% 14.8 mph WSW23.8 kmh WSW 19.2 mph30.9 kmh 30.11 in1019.6 mb 0.00 in0.0 mm 0.00 in0.0 mm 0.00 in0.0 mm
07:45 AM 56.1°F13.4°C 46.1°F7.8°C 69% 14.4 mph WSW23.2 kmh WSW 19.2 mph30.9 kmh 30.11 in1019.6 mb 0.00 in0.0 mm 0.00 in0.0 mm 0.00 in0.0 mm
07:50 AM 56.1°F13.4°C 46.1°F7.8°C 69% 13.4 mph WSW21.6 kmh WSW 20.1 mph32.3 kmh 30.11 in1019.6 mb 0.00 in0.0 mm 0.00 in0.0 mm 0.00 in0.0 mm
07:55 AM 55.9°F13.3°C 45.9°F7.7°C 69% 13.4 mph WSW21.6 kmh WSW 20.4 mph32.8 kmh 30.11 in1019.6 mb 0.00 in0.0 mm 0.00 in0.0 mm 0.00 in0.0 mm
08:00 AM 55.9°F13.3°C 45.9°F7.7°C 69% 13.4 mph WSW21.6 kmh WSW 18.1 mph29.1 kmh 30.11 in1019.6 mb 0.00 in0.0 mm 0.00 in0.0 mm 0.00 in0.0 mm
08:05 AM 55.9°F13.3°C 45.9°F7.7°C 69% 13.2 mph WSW21.2 kmh WSW 19.2 mph30.9 kmh 30.11 in1019.6 mb 0.00 in0.0 mm 0.00 in0.0 mm 0.00 in0.0 mm
08:10 AM 55.9°F13.3°C 45.9°F7.7°C 69% 12.5 mph WSW20.1 kmh WSW 17.0 mph27.4 kmh 30.11 in1019.6 mb 0.00 in0.0 mm 0.00 in0.0 mm 0.00 in0.0 mm
08:15 AM 55.9°F13.3°C 45.9°F7.7°C 69% 12.5 mph WSW20.1 kmh WSW 17.4 mph28.0 kmh 30.11 in1019.6 mb 0.00 in0.0 mm 0.00 in0.0 mm 0.00 in0.0 mm
08:20 AM 55.9°F13.3°C 45.9°F7.7°C 69% 12.3 mph WSW19.8 kmh WSW 20.1 mph32.3 kmh 30.11 in1019.6 mb 0.00 in0.0 mm 0.00 in0.0 mm 0.00 in0.0 mm
08:25 AM 56.0°F13.3°C 45.9°F7.7°C 69% 12.2 mph WSW19.6 kmh WSW 17.9 mph28.8 kmh 30.11 in1019.6 mb 0.00 in0.0 mm 0.00 in0.0 mm 0.00 in0.0 mm
08:30 AM 56.1°F13.4°C 46.1°F7.8°C 69% 11.9 mph WSW19.2 kmh WSW 19.7 mph31.7 kmh 30.11 in1019.6 mb 0.00 in0.0 mm 0.00 in0.0 mm 0.00 in0.0 mm
08:35 AM 56.3°F13.5°C 46.3°F7.9°C 69% 11.6 mph WSW18.7 kmh WSW 14.8 mph23.8 kmh 30.11 in1019.6 mb 0.00 in0.0 mm 0.00 in0.0 mm 0.00 in0.0 mm
08:40 AM 56.5°F13.6°C 46.1°F7.8°C 68% 10.7 mph WSW17.2 kmh WSW 16.3 mph26.2 kmh 30.11 in1019.6 mb 0.00 in0.0 mm 0.00 in0.0 mm 0.00 in0.0 mm
08:45 AM 56.5°F13.6°C 46.0°F7.8°C 68% 10.7 mph WSW17.2 kmh WSW 15.2 mph24.5 kmh 30.11 in1019.6 mb 0.00 in0.0 mm 0.00 in0.0 mm 0.00 in0.0 mm
08:50 AM 56.5°F13.6°C 46.0°F7.8°C 68% 10.7 mph WSW17.2 kmh WSW 19.2 mph30.9 kmh 30.11 in1019.6 mb 0.00 in0.0 mm 0.00 in0.0 mm 0.00 in0.0 mm
08:55 AM 56.5°F13.6°C 46.0°F7.8°C 68% 10.2 mph WSW16.4 kmh WSW 12.5 mph20.1 kmh 30.11 in1019.6 mb 0.00 in0.0 mm 0.00 in0.0 mm 0.00 in0.0 mm
09:00 AM 56.4°F13.6°C 46.1°F7.8°C 68% 8.7 mph WSW14.0 kmh WSW 17.4 mph28.0 kmh 30.11 in1019.6 mb 0.00 in0.0 mm 0.00 in0.0 mm 0.00 in0.0 mm
09:05 AM 56.5°F13.6°C 46.1°F7.8°C 68% 9.5 mph WSW15.3 kmh WSW 20.1 mph32.3 kmh 30.11 in1019.6 mb 0.00 in0.0 mm 0.00 in0.0 mm 0.00 in0.0 mm
09:10 AM 56.7°F13.7°C 46.2°F7.9°C 68% 11.4 mph WSW18.3 kmh WSW 19.7 mph31.7 kmh 30.11 in1019.6 mb 0.00 in0.0 mm 0.00 in0.0 mm 0.00 in0.0 mm
09:15 AM 56.8°F13.8°C 46.3°F7.9°C 68% 11.7 mph WSW18.8 kmh WSW 17.0 mph27.4 kmh 30.11 in1019.6 mb 0.00 in0.0 mm 0.00 in0.0 mm 0.00 in0.0 mm
09:20 AM 57.1°F13.9°C 46.2°F7.9°C 67% 12.3 mph WSW19.8 kmh WSW 20.1 mph32.3 kmh 30.11 in1019.6 mb 0.00 in0.0 mm 0.00 in0.0 mm 0.00 in0.0 mm
09:25 AM 57.5°F14.2°C 46.4°F8.0°C 66% 12.6 mph WSW20.3 kmh WSW 21.3 mph34.3 kmh 30.11 in1019.6 mb 0.00 in0.0 mm 0.00 in0.0 mm 0.00 in0.0 mm
09:30 AM 57.7°F14.3°C 46.4°F8.0°C 66% 13.4 mph WSW21.6 kmh WSW 22.6 mph36.4 kmh 30.11 in1019.6 mb 0.00 in0.0 mm 0.00 in0.0 mm 0.00 in0.0 mm
09:35 AM 57.9°F14.4°C 46.2°F7.9°C 65% 14.0 mph WSW22.5 kmh WSW 23.5 mph37.8 kmh 30.11 in1019.6 mb 0.00 in0.0 mm 0.00 in0.0 mm 0.00 in0.0 mm
09:40 AM 57.9°F14.4°C 46.2°F7.9°C 65% 15.7 mph WSW25.3 kmh WSW 19.7 mph31.7 kmh 30.12 in1020.0 mb 0.00 in0.0 mm 0.00 in0.0 mm 0.00 in0.0 mm
09:45 AM 58.0°F14.4°C 46.3°F7.9°C 65% 14.9 mph WSW24.0 kmh WSW 20.4 mph32.8 kmh 30.12 in1020.0 mb 0.00 in0.0 mm 0.00 in0.0 mm 0.00 in0.0 mm
09:50 AM 58.3°F14.6°C 46.4°F8.0°C 65% 13.0 mph WSW20.9 kmh WSW 20.1 mph32.3 kmh 30.12 in1020.0 mb 0.00 in0.0 mm 0.00 in0.0 mm 0.00 in0.0 mm
09:55 AM 58.5°F14.7°C 46.4°F8.0°C 64% 13.1 mph WSW21.1 kmh WSW 21.3 mph34.3 kmh 30.12 in1020.0 mb 0.00 in0.0 mm 0.00 in0.0 mm 0.00 in0.0 mm
10:00 AM 58.7°F14.8°C 46.5°F8.1°C 64% 13.4 mph WSW21.6 kmh WSW 21.9 mph35.2 kmh 30.12 in1020.0 mb 0.00 in0.0 mm 0.00 in0.0 mm 0.00 in0.0 mm
10:05 AM 58.9°F14.9°C 46.4°F8.0°C 63% 13.9 mph WSW22.4 kmh WSW 24.8 mph39.9 kmh 30.12 in1020.0 mb 0.00 in0.0 mm 0.00 in0.0 mm 0.00 in0.0 mm
10:10 AM 59.2°F15.1°C 46.6°F8.1°C 63% 15.2 mph WSW24.5 kmh WSW 23.0 mph37.0 kmh 30.13 in1020.3 mb 0.00 in0.0 mm 0.00 in0.0 mm 0.00 in0.0 mm
10:15 AM 59.4°F15.2°C 46.4°F8.0°C 62% 15.3 mph WSW24.6 kmh WSW 22.4 mph36.0 kmh 30.13 in1020.3 mb 0.00 in0.0 mm 0.00 in0.0 mm 0.00 in0.0 mm
10:20 AM 59.6°F15.3°C 46.6°F8.1°C 62% 15.7 mph WSW25.3 kmh WSW 22.4 mph36.0 kmh 30.13 in1020.3 mb 0.00 in0.0 mm 0.00 in0.0 mm 0.00 in0.0 mm
10:25 AM 59.8°F15.4°C 46.5°F8.1°C 61% 15.7 mph WSW25.3 kmh WSW 27.3 mph43.9 kmh 30.14 in1020.7 mb 0.00 in0.0 mm 0.00 in0.0 mm 0.00 in0.0 mm
10:30 AM 60.0°F15.6°C 46.5°F8.1°C 61% 15.7 mph WSW25.3 kmh WSW 25.3 mph40.7 kmh 30.14 in1020.7 mb 0.00 in0.0 mm 0.00 in0.0 mm 0.00 in0.0 mm
10:35 AM 60.2°F15.7°C 46.4°F8.0°C 60% 15.7 mph W25.3 kmh W 27.5 mph44.3 kmh 30.14 in1020.7 mb 0.00 in0.0 mm 0.00 in0.0 mm 0.00 in0.0 mm
10:40 AM 60.4°F15.8°C 46.4°F8.0°C 60% 15.9 mph W25.6 kmh W 25.3 mph40.7 kmh 30.13 in1020.3 mb 0.00 in0.0 mm 0.00 in0.0 mm 0.00 in0.0 mm
10:45 AM 60.7°F15.9°C 46.5°F8.1°C 60% 15.4 mph W24.8 kmh W 21.5 mph34.6 kmh 30.13 in1020.3 mb 0.00 in0.0 mm 0.00 in0.0 mm 0.00 in0.0 mm
10:50 AM 61.1°F16.2°C 46.6°F8.1°C 59% 14.1 mph W22.7 kmh W 25.7 mph41.4 kmh 30.13 in1020.3 mb 0.00 in0.0 mm 0.00 in0.0 mm 0.00 in0.0 mm
10:55 AM 61.3°F16.3°C 46.2°F7.9°C 58% 14.6 mph W23.5 kmh W 28.0 mph45.1 kmh 30.13 in1020.3 mb 0.00 in0.0 mm 0.00 in0.0 mm 0.00 in0.0 mm
11:00 AM 61.4°F16.3°C 46.0°F7.8°C 57% 15.9 mph W25.6 kmh W 29.8 mph48.0 kmh 30.13 in1020.3 mb 0.00 in0.0 mm 0.00 in0.0 mm 0.00 in0.0 mm
11:05 AM 61.7°F16.5°C 45.9°F7.7°C 56% 16.5 mph W26.6 kmh W 25.7 mph41.4 kmh 30.13 in1020.3 mb 0.00 in0.0 mm 0.00 in0.0 mm 0.00 in0.0 mm
11:10 AM 62.0°F16.7°C 45.8°F7.7°C 55% 18.1 mph W29.1 kmh W 22.4 mph36.0 kmh 30.14 in1020.7 mb 0.00 in0.0 mm 0.00 in0.0 mm 0.00 in0.0 mm
11:15 AM 62.2°F16.8°C 45.8°F7.7°C 55% 17.0 mph W27.4 kmh W 19.7 mph31.7 kmh 30.14 in1020.7 mb 0.00 in0.0 mm 0.00 in0.0 mm 0.00 in0.0 mm
11:20 AM 62.6°F17.0°C 45.7°F7.6°C 54% 14.1 mph WSW22.7 kmh WSW 17.4 mph28.0 kmh 30.14 in1020.7 mb 0.00 in0.0 mm 0.00 in0.0 mm 0.00 in0.0 mm
11:25 AM 62.8°F17.1°C 45.9°F7.7°C 54% 13.6 mph WSW21.9 kmh WSW 15.9 mph25.6 kmh 30.14 in1020.7 mb 0.00 in0.0 mm 0.00 in0.0 mm 0.00 in0.0 mm
11:30 AM 63.1°F17.3°C 46.2°F7.9°C 54% 12.3 mph WSW19.8 kmh WSW 20.1 mph32.3 kmh 30.14 in1020.7 mb 0.00 in0.0 mm 0.00 in0.0 mm 0.00 in0.0 mm
11:35 AM 63.6°F17.6°C 46.1°F7.8°C 53% 12.0 mph WSW19.3 kmh WSW 15.9 mph25.6 kmh 30.14 in1020.7 mb 0.00 in0.0 mm 0.00 in0.0 mm 0.00 in0.0 mm
11:40 AM 63.9°F17.7°C 46.5°F8.1°C 53% 11.2 mph WSW18.0 kmh WSW 13.6 mph21.9 kmh 30.14 in1020.7 mb 0.00 in0.0 mm 0.00 in0.0 mm 0.00 in0.0 mm
11:45 AM 64.1°F17.8°C 47.8°F8.8°C 56% 10.5 mph WSW16.9 kmh WSW 13.4 mph21.6 kmh 30.14 in1020.7 mb 0.00 in0.0 mm 0.00 in0.0 mm 0.00 in0.0 mm
11:50 AM 63.9°F17.7°C 48.7°F9.3°C 58% 8.7 mph SW14.0 kmh SW 13.0 mph20.9 kmh 30.14 in1020.7 mb 0.00 in0.0 mm 0.00 in0.0 mm 0.00 in0.0 mm
11:55 AM 63.3°F17.4°C 48.7°F9.3°C 59% 9.0 mph SW14.5 kmh SW 12.3 mph19.8 kmh 30.14 in1020.7 mb 0.00 in0.0 mm 0.00 in0.0 mm 0.00 in0.0 mm
12:00 PM 63.1°F17.3°C 49.0°F9.4°C 60% 9.6 mph SW15.4 kmh SW 11.9 mph19.2 kmh 30.14 in1020.7 mb 0.00 in0.0 mm 0.00 in0.0 mm 0.00 in0.0 mm
12:05 PM 63.0°F17.2°C 48.9°F9.4°C 60% 9.1 mph SW14.6 kmh SW 10.1 mph16.3 kmh 30.14 in1020.7 mb 0.00 in0.0 mm 0.00 in0.0 mm 0.00 in0.0 mm
12:10 PM 63.1°F17.3°C 48.9°F9.4°C 60% 7.6 mph SW12.2 kmh SW 10.1 mph16.3 kmh 30.14 in1020.7 mb 0.00 in0.0 mm 0.00 in0.0 mm 0.00 in0.0 mm
12:15 PM 62.9°F17.2°C 48.7°F9.3°C 60% 7.4 mph SW11.9 kmh SW 9.2 mph14.8 kmh 30.14 in1020.7 mb 0.00 in0.0 mm 0.00 in0.0 mm 0.00 in0.0 mm
12:20 PM 63.0°F17.2°C 49.1°F9.5°C 61% 6.9 mph SW11.1 kmh SW 8.5 mph13.7 kmh 30.14 in1020.7 mb 0.00 in0.0 mm 0.00 in0.0 mm 0.00 in0.0 mm
12:25 PM 63.1°F17.3°C 49.0°F9.4°C 60% 6.8 mph SW10.9 kmh SW 8.7 mph14.0 kmh 30.14 in1020.7 mb 0.00 in0.0 mm 0.00 in0.0 mm 0.00 in0.0 mm
12:30 PM 63.2°F17.3°C 49.0°F9.4°C 60% 6.5 mph SSW10.5 kmh SSW 9.2 mph14.8 kmh 30.13 in1020.3 mb 0.00 in0.0 mm 0.00 in0.0 mm 0.00 in0.0 mm
12:35 PM 63.5°F17.5°C 49.3°F9.6°C 60% 6.4 mph SW10.3 kmh SW 8.5 mph13.7 kmh 30.13 in1020.3 mb 0.00 in0.0 mm 0.00 in0.0 mm 0.00 in0.0 mm
12:40 PM 64.0°F17.8°C 49.5°F9.7°C 59% 6.3 mph SW10.1 kmh SW 9.2 mph14.8 kmh 30.13 in1020.3 mb 0.00 in0.0 mm 0.00 in0.0 mm 0.00 in0.0 mm
12:45 PM 64.4°F18.0°C 49.5°F9.7°C 58% 6.3 mph SW10.1 kmh SW 10.3 mph16.6 kmh 30.13 in1020.3 mb 0.00 in0.0 mm 0.00 in0.0 mm 0.00 in0.0 mm
12:50 PM 64.9°F18.3°C 49.4°F9.7°C 57% 6.3 mph SW10.1 kmh SW 8.5 mph13.7 kmh 30.13 in1020.3 mb 0.00 in0.0 mm 0.00 in0.0 mm 0.00 in0.0 mm
12:55 PM 65.2°F18.4°C 49.1°F9.5°C 56% 6.3 mph SW10.1 kmh SW 9.6 mph15.4 kmh 30.13 in1020.3 mb 0.00 in0.0 mm 0.00 in0.0 mm 0.00 in0.0 mm
01:00 PM 65.5°F18.6°C 49.3°F9.6°C 56% 6.3 mph SW10.1 kmh SW 8.5 mph13.7 kmh 30.13 in1020.3 mb 0.00 in0.0 mm 0.00 in0.0 mm 0.00 in0.0 mm
01:05 PM 65.7°F18.7°C 49.5°F9.7°C 56% 6.0 mph SW9.7 kmh SW 7.4 mph11.9 kmh 30.13 in1020.3 mb 0.00 in0.0 mm 0.00 in0.0 mm 0.00 in0.0 mm
01:10 PM 65.9°F18.8°C 49.1°F9.5°C 55% 5.1 mph SW8.2 kmh SW 8.5 mph13.7 kmh 30.12 in1020.0 mb 0.00 in0.0 mm 0.00 in0.0 mm 0.00 in0.0 mm
01:15 PM 66.3°F19.1°C 49.0°F9.4°C 54% 4.6 mph SW7.4 kmh SW 5.1 mph8.2 kmh 30.12 in1020.0 mb 0.00 in0.0 mm 0.00 in0.0 mm 0.00 in0.0 mm
01:20 PM 66.8°F19.3°C 48.8°F9.3°C 52% 3.1 mph WSW5.0 kmh WSW 5.8 mph9.3 kmh 30.12 in1020.0 mb 0.00 in0.0 mm 0.00 in0.0 mm 0.00 in0.0 mm
01:25 PM 66.7°F19.3°C 47.9°F8.8°C 51% 2.9 mph WSW4.7 kmh WSW 6.5 mph10.5 kmh 30.12 in1020.0 mb 0.00 in0.0 mm 0.00 in0.0 mm 0.00 in0.0 mm
01:30 PM 66.6°F19.2°C 47.4°F8.6°C 50% 2.5 mph NE4.0 kmh NE 5.4 mph8.7 kmh 30.12 in1020.0 mb 0.00 in0.0 mm 0.00 in0.0 mm 0.00 in0.0 mm
01:35 PM 67.0°F19.4°C 47.5°F8.6°C 50% 2.5 mph NE4.0 kmh NE 5.1 mph8.2 kmh 30.12 in1020.0 mb 0.00 in0.0 mm 0.00 in0.0 mm 0.00 in0.0 mm
01:40 PM 67.5°F19.7°C 46.5°F8.1°C 47% 2.5 mph E4.0 kmh E 3.1 mph5.0 kmh 30.11 in1019.6 mb 0.00 in0.0 mm 0.00 in0.0 mm 0.00 in0.0 mm
01:45 PM 68.2°F20.1°C 46.1°F7.8°C 45% 2.3 mph ESE3.7 kmh ESE 5.4 mph8.7 kmh 30.11 in1019.6 mb 0.00 in0.0 mm 0.00 in0.0 mm 0.00 in0.0 mm
01:50 PM 68.9°F20.5°C 45.3°F7.4°C 43% 1.8 mph S2.9 kmh S 13.0 mph20.9 kmh 30.11 in1019.6 mb 0.00 in0.0 mm 0.00 in0.0 mm 0.00 in0.0 mm
01:55 PM 69.3°F20.7°C 44.6°F7.0°C 41% 3.4 mph SW5.5 kmh SW 12.5 mph20.1 kmh 30.11 in1019.6 mb 0.00 in0.0 mm 0.00 in0.0 mm 0.00 in0.0 mm
02:00 PM 69.4°F20.8°C 47.0°F8.3°C 45% 7.6 mph SW12.2 kmh SW 16.3 mph26.2 kmh 30.11 in1019.6 mb 0.00 in0.0 mm 0.00 in0.0 mm 0.00 in0.0 mm
02:05 PM 69.0°F20.6°C 48.6°F9.2°C 48% 8.5 mph SW13.7 kmh SW 16.8 mph27.0 kmh 30.11 in1019.6 mb 0.00 in0.0 mm 0.00 in0.0 mm 0.00 in0.0 mm
02:10 PM 68.1°F20.1°C 48.8°F9.3°C 50% 10.7 mph SW17.2 kmh SW 13.0 mph20.9 kmh 30.10 in1019.3 mb 0.00 in0.0 mm 0.00 in0.0 mm 0.00 in0.0 mm
02:15 PM 67.8°F19.9°C 48.7°F9.3°C 50% 10.3 mph SW16.6 kmh SW 13.0 mph20.9 kmh 30.09 in1019.0 mb 0.00 in0.0 mm 0.00 in0.0 mm 0.00 in0.0 mm
02:20 PM 67.5°F19.7°C 48.3°F9.1°C 50% 9.2 mph SW14.8 kmh SW 13.6 mph21.9 kmh 30.09 in1019.0 mb 0.00 in0.0 mm 0.00 in0.0 mm 0.00 in0.0 mm
02:25 PM 67.4°F19.7°C 47.5°F8.6°C 49% 9.2 mph SW14.8 kmh SW 14.1 mph22.7 kmh 30.09 in1019.0 mb 0.00 in0.0 mm 0.00 in0.0 mm 0.00 in0.0 mm
02:30 PM 67.3°F19.6°C 47.7°F8.7°C 49% 9.2 mph SSW14.8 kmh SSW 10.7 mph17.2 kmh 30.09 in1019.0 mb 0.00 in0.0 mm 0.00 in0.0 mm 0.00 in0.0 mm
02:35 PM 67.3°F19.6°C 48.5°F9.2°C 51% 8.3 mph SSW13.4 kmh SSW 9.2 mph14.8 kmh 30.09 in1019.0 mb 0.00 in0.0 mm 0.00 in0.0 mm 0.00 in0.0 mm
02:40 PM 67.0°F19.4°C 48.6°F9.2°C 52% 5.8 mph SSW9.3 kmh SSW 11.4 mph18.3 kmh 30.09 in1019.0 mb 0.00 in0.0 mm 0.00 in0.0 mm 0.00 in0.0 mm
02:45 PM 66.8°F19.3°C 48.1°F8.9°C 51% 6.3 mph SSW10.1 kmh SSW 11.9 mph19.2 kmh 30.09 in1019.0 mb 0.00 in0.0 mm 0.00 in0.0 mm 0.00 in0.0 mm
02:50 PM 66.9°F19.4°C 48.2°F9.0°C 51% 7.6 mph SSW12.2 kmh SSW 11.9 mph19.2 kmh 30.09 in1019.0 mb 0.00 in0.0 mm 0.00 in0.0 mm 0.00 in0.0 mm
02:55 PM 67.3°F19.6°C 48.4°F9.1°C 51% 7.5 mph SSW12.1 kmh SSW 10.7 mph17.2 kmh 30.09 in1019.0 mb 0.00 in0.0 mm 0.00 in0.0 mm 0.00 in0.0 mm
03:00 PM 67.5°F19.7°C 47.7°F8.7°C 49% 7.4 mph SSW11.9 kmh SSW 13.0 mph20.9 kmh 30.09 in1019.0 mb 0.00 in0.0 mm 0.00 in0.0 mm 0.00 in0.0 mm
03:05 PM 67.9°F19.9°C 47.7°F8.7°C 48% 7.7 mph SSW12.4 kmh SSW 13.6 mph21.9 kmh 30.09 in1019.0 mb 0.00 in0.0 mm 0.00 in0.0 mm 0.00 in0.0 mm
03:10 PM 68.4°F20.2°C 47.5°F8.6°C 47% 8.7 mph SW14.0 kmh SW 12.5 mph20.1 kmh 30.09 in1019.0 mb 0.00 in0.0 mm 0.00 in0.0 mm 0.00 in0.0 mm
03:15 PM 68.3°F20.2°C 46.7°F8.2°C 46% 8.8 mph SW14.2 kmh SW 13.4 mph21.6 kmh 30.09 in1019.0 mb 0.00 in0.0 mm 0.00 in0.0 mm 0.00 in0.0 mm
03:20 PM 68.0°F20.0°C 46.1°F7.8°C 45% 9.2 mph SW14.8 kmh SW 15.7 mph25.3 kmh 30.09 in1019.0 mb 0.00 in0.0 mm 0.00 in0.0 mm 0.00 in0.0 mm
03:25 PM 68.0°F20.0°C 45.8°F7.7°C 45% 9.3 mph SW15.0 kmh SW 12.5 mph20.1 kmh 30.08 in1018.6 mb 0.00 in0.0 mm 0.00 in0.0 mm 0.00 in0.0 mm
03:30 PM 68.2°F20.1°C 45.8°F7.7°C 45% 9.6 mph SSW15.4 kmh SSW 10.7 mph17.2 kmh 30.08 in1018.6 mb 0.00 in0.0 mm 0.00 in0.0 mm 0.00 in0.0 mm
03:35 PM 68.4°F20.2°C 45.6°F7.6°C 44% 8.9 mph SSW14.3 kmh SSW 12.3 mph19.8 kmh 30.08 in1018.6 mb 0.00 in0.0 mm 0.00 in0.0 mm 0.00 in0.0 mm
03:40 PM 68.5°F20.3°C 45.6°F7.6°C 44% 6.9 mph SSW11.1 kmh SSW 8.7 mph14.0 kmh 30.09 in1019.0 mb 0.00 in0.0 mm 0.00 in0.0 mm 0.00 in0.0 mm
03:45 PM 68.6°F20.3°C 48.5°F9.2°C 49% 6.3 mph S10.1 kmh S 6.9 mph11.1 kmh 30.09 in1019.0 mb 0.00 in0.0 mm 0.00 in0.0 mm 0.00 in0.0 mm
03:50 PM 67.2°F19.6°C 50.4°F10.2°C 55% 4.7 mph SSE7.6 kmh SSE 7.4 mph11.9 kmh 30.09 in1019.0 mb 0.00 in0.0 mm 0.00 in0.0 mm 0.00 in0.0 mm
03:55 PM 66.1°F18.9°C 50.5°F10.3°C 57% 4.7 mph SE7.6 kmh SE 5.4 mph8.7 kmh 30.09 in1019.0 mb 0.00 in0.0 mm 0.00 in0.0 mm 0.00 in0.0 mm
04:00 PM 65.7°F18.7°C 50.4°F10.2°C 58% 4.7 mph ESE7.6 kmh ESE 6.5 mph10.5 kmh 30.09 in1019.0 mb 0.00 in0.0 mm 0.00 in0.0 mm 0.00 in0.0 mm
04:05 PM 65.5°F18.6°C 50.4°F10.2°C 58% 4.5 mph ESE7.2 kmh ESE 5.1 mph8.2 kmh 30.09 in1019.0 mb 0.00 in0.0 mm 0.00 in0.0 mm 0.00 in0.0 mm
04:10 PM 65.5°F18.6°C 50.8°F10.4°C 59% 4.0 mph ESE6.4 kmh ESE 5.1 mph8.2 kmh 30.10 in1019.3 mb 0.00 in0.0 mm 0.00 in0.0 mm 0.00 in0.0 mm
04:15 PM 65.7°F18.7°C 50.6°F10.3°C 58% 3.8 mph SE6.1 kmh SE 6.3 mph10.1 kmh 30.10 in1019.3 mb 0.00 in0.0 mm 0.00 in0.0 mm 0.00 in0.0 mm
04:20 PM 66.1°F18.9°C 49.0°F9.4°C 54% 3.1 mph SE5.0 kmh SE 11.4 mph18.3 kmh 30.10 in1019.3 mb 0.00 in0.0 mm 0.00 in0.0 mm 0.00 in0.0 mm
04:25 PM 67.1°F19.5°C 46.7°F8.2°C 48% 4.3 mph S6.9 kmh S 14.8 mph23.8 kmh 30.10 in1019.3 mb 0.00 in0.0 mm 0.00 in0.0 mm 0.00 in0.0 mm
04:30 PM 67.5°F19.7°C 46.0°F7.8°C 46% 7.4 mph SW11.9 kmh SW 15.7 mph25.3 kmh 30.10 in1019.3 mb 0.00 in0.0 mm 0.00 in0.0 mm 0.00 in0.0 mm
04:35 PM 67.6°F19.8°C 45.6°F7.6°C 45% 8.3 mph SW13.4 kmh SW 13.0 mph20.9 kmh 30.10 in1019.3 mb 0.00 in0.0 mm 0.00 in0.0 mm 0.00 in0.0 mm
04:40 PM 67.6°F19.8°C 45.5°F7.5°C 45% 10.7 mph SW17.2 kmh SW 13.4 mph21.6 kmh 30.10 in1019.3 mb 0.00 in0.0 mm 0.00 in0.0 mm 0.00 in0.0 mm
04:45 PM 67.6°F19.8°C 45.5°F7.5°C 45% 10.4 mph SW16.7 kmh SW 11.9 mph19.2 kmh 30.10 in1019.3 mb 0.00 in0.0 mm 0.00 in0.0 mm 0.00 in0.0 mm
04:50 PM 67.7°F19.8°C 45.6°F7.6°C 45% 9.6 mph SW15.4 kmh SW 11.4 mph18.3 kmh 30.10 in1019.3 mb 0.00 in0.0 mm 0.00 in0.0 mm 0.00 in0.0 mm
04:55 PM 67.8°F19.9°C 45.7°F7.6°C 45% 9.5 mph SW15.3 kmh SW 13.0 mph20.9 kmh 30.10 in1019.3 mb 0.00 in0.0 mm 0.00 in0.0 mm 0.00 in0.0 mm
05:00 PM 67.8°F19.9°C 45.7°F7.6°C 45% 9.2 mph WSW14.8 kmh WSW 12.5 mph20.1 kmh 30.10 in1019.3 mb 0.00 in0.0 mm 0.00 in0.0 mm 0.00 in0.0 mm
05:05 PM 67.8°F19.9°C 45.7°F7.6°C 45% 9.0 mph WSW14.5 kmh WSW 10.3 mph16.6 kmh 30.10 in1019.3 mb 0.00 in0.0 mm 0.00 in0.0 mm 0.00 in0.0 mm
05:10 PM 67.8°F19.9°C 45.9°F7.7°C 45% 8.5 mph WSW13.7 kmh WSW 14.1 mph22.7 kmh 30.11 in1019.6 mb 0.00 in0.0 mm 0.00 in0.0 mm 0.00 in0.0 mm
05:15 PM 67.8°F19.9°C 46.3°F7.9°C 46% 8.8 mph WSW14.2 kmh WSW 21.5 mph34.6 kmh 30.11 in1019.6 mb 0.00 in0.0 mm 0.00 in0.0 mm 0.00 in0.0 mm
05:20 PM 68.0°F20.0°C 46.4°F8.0°C 46% 9.6 mph WSW15.4 kmh WSW 20.1 mph32.3 kmh 30.11 in1019.6 mb 0.00 in0.0 mm 0.00 in0.0 mm 0.00 in0.0 mm
05:25 PM 68.2°F20.1°C 46.6°F8.1°C 46% 10.3 mph WSW16.6 kmh WSW 14.5 mph23.3 kmh 30.11 in1019.6 mb 0.00 in0.0 mm 0.00 in0.0 mm 0.00 in0.0 mm
05:30 PM 68.1°F20.1°C 46.5°F8.1°C 46% 12.3 mph WSW19.8 kmh WSW 16.8 mph27.0 kmh 30.12 in1020.0 mb 0.00 in0.0 mm 0.00 in0.0 mm 0.00 in0.0 mm
05:35 PM 68.1°F20.1°C 47.1°F8.4°C 47% 12.5 mph WSW20.1 kmh WSW 20.8 mph33.5 kmh 30.12 in1020.0 mb 0.00 in0.0 mm 0.00 in0.0 mm 0.00 in0.0 mm
05:40 PM 68.5°F20.3°C 48.3°F9.1°C 49% 13.0 mph WSW20.9 kmh WSW 20.1 mph32.3 kmh 30.12 in1020.0 mb 0.00 in0.0 mm 0.00 in0.0 mm 0.00 in0.0 mm
05:45 PM 68.7°F20.4°C 48.2°F9.0°C 48% 13.3 mph WSW21.4 kmh WSW 20.1 mph32.3 kmh 30.12 in1020.0 mb 0.00 in0.0 mm 0.00 in0.0 mm 0.00 in0.0 mm
05:50 PM 68.6°F20.3°C 48.5°F9.2°C 49% 14.1 mph WSW22.7 kmh WSW 20.4 mph32.8 kmh 30.12 in1020.0 mb 0.00 in0.0 mm 0.00 in0.0 mm 0.00 in0.0 mm
05:55 PM 68.5°F20.3°C 49.4°F9.7°C 51% 14.1 mph WSW22.7 kmh WSW 22.4 mph36.0 kmh 30.12 in1020.0 mb 0.00 in0.0 mm 0.00 in0.0 mm 0.00 in0.0 mm
06:00 PM 68.4°F20.2°C 49.7°F9.8°C 51% 14.1 mph WSW22.7 kmh WSW 22.4 mph36.0 kmh 30.12 in1020.0 mb 0.00 in0.0 mm 0.00 in0.0 mm 0.00 in0.0 mm
06:05 PM 68.3°F20.2°C 50.0°F10.0°C 52% 14.4 mph WSW23.2 kmh WSW 20.4 mph32.8 kmh 30.12 in1020.0 mb 0.00 in0.0 mm 0.00 in0.0 mm 0.00 in0.0 mm
06:10 PM 68.2°F20.1°C 49.9°F9.9°C 52% 15.2 mph WSW24.5 kmh WSW 25.3 mph40.7 kmh 30.12 in1020.0 mb 0.00 in0.0 mm 0.00 in0.0 mm 0.00 in0.0 mm
06:15 PM 68.1°F20.1°C 49.8°F9.9°C 52% 15.3 mph WSW24.6 kmh WSW 27.3 mph43.9 kmh 30.13 in1020.3 mb 0.00 in0.0 mm 0.00 in0.0 mm 0.00 in0.0 mm
06:20 PM 67.9°F19.9°C 49.6°F9.8°C 52% 15.7 mph WSW25.3 kmh WSW 24.8 mph39.9 kmh 30.13 in1020.3 mb 0.00 in0.0 mm 0.00 in0.0 mm 0.00 in0.0 mm
06:25 PM 67.8°F19.9°C 49.4°F9.7°C 52% 16.6 mph WSW26.7 kmh WSW 30.9 mph49.7 kmh 30.13 in1020.3 mb 0.00 in0.0 mm 0.00 in0.0 mm 0.00 in0.0 mm
06:30 PM 67.6°F19.8°C 48.8°F9.3°C 51% 19.2 mph WSW30.9 kmh WSW 30.6 mph49.2 kmh 30.14 in1020.7 mb 0.00 in0.0 mm 0.00 in0.0 mm 0.00 in0.0 mm
06:35 PM 67.5°F19.7°C 48.7°F9.3°C 51% 19.5 mph WSW31.4 kmh WSW 31.8 mph51.2 kmh 30.14 in1020.7 mb 0.00 in0.0 mm 0.00 in0.0 mm 0.00 in0.0 mm
06:40 PM 67.3°F19.6°C 48.5°F9.2°C 51% 20.1 mph WSW32.3 kmh WSW 31.8 mph51.2 kmh 30.14 in1020.7 mb 0.00 in0.0 mm 0.00 in0.0 mm 0.00 in0.0 mm
06:45 PM 67.0°F19.4°C 48.4°F9.1°C 51% 19.9 mph WSW32.0 kmh WSW 28.6 mph46.0 kmh 30.14 in1020.7 mb 0.00 in0.0 mm 0.00 in0.0 mm 0.00 in0.0 mm
06:50 PM 66.8°F19.3°C 48.6°F9.2°C 52% 19.2 mph WSW30.9 kmh WSW 27.3 mph43.9 kmh 30.14 in1020.7 mb 0.00 in0.0 mm 0.00 in0.0 mm 0.00 in0.0 mm
06:55 PM 66.6°F19.2°C 48.4°F9.1°C 52% 19.4 mph WSW31.2 kmh WSW 25.3 mph40.7 kmh 30.14 in1020.7 mb 0.00 in0.0 mm 0.00 in0.0 mm 0.00 in0.0 mm
07:00 PM 66.4°F19.1°C 48.2°F9.0°C 52% 19.7 mph WSW31.7 kmh WSW 26.4 mph42.5 kmh 30.14 in1020.7 mb 0.00 in0.0 mm 0.00 in0.0 mm 0.00 in0.0 mm
07:05 PM 66.2°F19.0°C 47.7°F8.7°C 51% 19.0 mph WSW30.6 kmh WSW 27.5 mph44.3 kmh 30.14 in1020.7 mb 0.00 in0.0 mm 0.00 in0.0 mm 0.00 in0.0 mm
07:10 PM 66.0°F18.9°C 47.4°F8.6°C 51% 17.0 mph WSW27.4 kmh WSW 25.3 mph40.7 kmh 30.15 in1021.0 mb 0.00 in0.0 mm 0.00 in0.0 mm 0.00 in0.0 mm
07:15 PM 65.8°F18.8°C 47.2°F8.4°C 51% 16.9 mph WSW27.2 kmh WSW 25.7 mph41.4 kmh 30.15 in1021.0 mb 0.00 in0.0 mm 0.00 in0.0 mm 0.00 in0.0 mm
07:20 PM 65.7°F18.7°C 46.6°F8.1°C 50% 16.8 mph WSW27.0 kmh WSW 23.7 mph38.1 kmh 30.15 in1021.0 mb 0.00 in0.0 mm 0.00 in0.0 mm 0.00 in0.0 mm
07:25 PM 65.5°F18.6°C 46.3°F7.9°C 50% 16.2 mph WSW26.1 kmh WSW 28.4 mph45.7 kmh 30.15 in1021.0 mb 0.00 in0.0 mm 0.00 in0.0 mm 0.00 in0.0 mm
07:30 PM 65.4°F18.6°C 45.8°F7.7°C 49% 14.8 mph SW23.8 kmh SW 24.2 mph38.9 kmh 30.15 in1021.0 mb 0.00 in0.0 mm 0.00 in0.0 mm 0.00 in0.0 mm
07:35 PM 65.2°F18.4°C 45.4°F7.4°C 49% 15.5 mph WSW24.9 kmh WSW 28.0 mph45.1 kmh 30.15 in1021.0 mb 0.00 in0.0 mm 0.00 in0.0 mm 0.00 in0.0 mm
07:40 PM 65.1°F18.4°C 44.9°F7.2°C 48% 17.4 mph WSW28.0 kmh WSW 27.5 mph44.3 kmh 30.15 in1021.0 mb 0.00 in0.0 mm 0.00 in0.0 mm 0.00 in0.0 mm
07:45 PM 65.1°F18.4°C 44.9°F7.2°C 48% 17.3 mph WSW27.8 kmh WSW 27.3 mph43.9 kmh 30.15 in1021.0 mb 0.00 in0.0 mm 0.00 in0.0 mm 0.00 in0.0 mm
07:50 PM 65.0°F18.3°C 44.7°F7.1°C 48% 17.0 mph SW27.4 kmh SW 27.3 mph43.9 kmh 30.15 in1021.0 mb 0.00 in0.0 mm 0.00 in0.0 mm 0.00 in0.0 mm
07:55 PM 64.9°F18.3°C 44.5°F6.9°C 48% 17.0 mph SW27.4 kmh SW 25.7 mph41.4 kmh 30.16 in1021.3 mb 0.00 in0.0 mm 0.00 in0.0 mm 0.00 in0.0 mm
08:00 PM 64.8°F18.2°C 44.2°F6.8°C 47% 17.0 mph WSW27.4 kmh WSW 30.6 mph49.2 kmh 30.16 in1021.3 mb 0.00 in0.0 mm 0.00 in0.0 mm 0.00 in0.0 mm
08:05 PM 64.8°F18.2°C 44.3°F6.8°C 47% 17.6 mph WSW28.3 kmh WSW 23.5 mph37.8 kmh 30.16 in1021.3 mb 0.00 in0.0 mm 0.00 in0.0 mm 0.00 in0.0 mm
08:10 PM 64.6°F18.1°C 44.4°F6.9°C 48% 19.2 mph WSW30.9 kmh WSW 26.8 mph43.1 kmh 30.16 in1021.3 mb 0.00 in0.0 mm 0.00 in0.0 mm 0.00 in0.0 mm
08:15 PM 64.6°F18.1°C 43.9°F6.6°C 47% 18.8 mph WSW30.3 kmh WSW 26.2 mph42.2 kmh 30.16 in1021.3 mb 0.00 in0.0 mm 0.00 in0.0 mm 0.00 in0.0 mm
08:20 PM 64.4°F18.0°C 43.7°F6.5°C 47% 17.4 mph WSW28.0 kmh WSW 29.5 mph47.5 kmh 30.16 in1021.3 mb 0.00 in0.0 mm 0.00 in0.0 mm 0.00 in0.0 mm
08:25 PM 64.3°F17.9°C 43.6°F6.4°C 47% 17.9 mph WSW28.8 kmh WSW 26.8 mph43.1 kmh 30.16 in1021.3 mb 0.00 in0.0 mm 0.00 in0.0 mm 0.00 in0.0 mm
08:30 PM 64.1°F17.8°C 43.3°F6.3°C 47% 19.2 mph WSW30.9 kmh WSW 27.5 mph44.3 kmh 30.16 in1021.3 mb 0.00 in0.0 mm 0.00 in0.0 mm 0.00 in0.0 mm
08:35 PM 64.0°F17.8°C 42.8°F6.0°C 46% 19.2 mph WSW30.9 kmh WSW 28.6 mph46.0 kmh 30.16 in1021.3 mb 0.00 in0.0 mm 0.00 in0.0 mm 0.00 in0.0 mm
08:40 PM 64.0°F17.8°C 42.4°F5.8°C 45% 19.0 mph WSW30.6 kmh WSW 25.7 mph41.4 kmh 30.17 in1021.7 mb 0.00 in0.0 mm 0.00 in0.0 mm 0.00 in0.0 mm
08:45 PM 63.8°F17.7°C 42.1°F5.6°C 45% 18.6 mph WSW29.9 kmh WSW 22.6 mph36.4 kmh 30.17 in1021.7 mb 0.00 in0.0 mm 0.00 in0.0 mm 0.00 in0.0 mm
08:50 PM 63.7°F17.6°C 42.0°F5.6°C 45% 17.4 mph WSW28.0 kmh WSW 18.6 mph29.9 kmh 30.17 in1021.7 mb 0.00 in0.0 mm 0.00 in0.0 mm 0.00 in0.0 mm
08:55 PM 63.4°F17.4°C 42.1°F5.6°C 46% 16.1 mph WSW25.9 kmh WSW 20.1 mph32.3 kmh 30.18 in1022.0 mb 0.00 in0.0 mm 0.00 in0.0 mm 0.00 in0.0 mm
09:00 PM 63.3°F17.4°C 42.2°F5.7°C 46% 12.3 mph WSW19.8 kmh WSW 19.2 mph30.9 kmh 30.18 in1022.0 mb 0.00 in0.0 mm 0.00 in0.0 mm 0.00 in0.0 mm
09:05 PM 63.1°F17.3°C 42.0°F5.6°C 46% 11.7 mph WSW18.8 kmh WSW 17.0 mph27.4 kmh 30.18 in1022.0 mb 0.00 in0.0 mm 0.00 in0.0 mm 0.00 in0.0 mm
09:10 PM 63.0°F17.2°C 41.9°F5.5°C 46% 10.1 mph WSW16.3 kmh WSW 15.9 mph25.6 kmh 30.18 in1022.0 mb 0.00 in0.0 mm 0.00 in0.0 mm 0.00 in0.0 mm
09:15 PM 62.8°F17.1°C 41.7°F5.4°C 46% 9.8 mph WSW15.8 kmh WSW 13.4 mph21.6 kmh 30.19 in1022.4 mb 0.00 in0.0 mm 0.00 in0.0 mm 0.00 in0.0 mm
09:20 PM 62.7°F17.1°C 41.6°F5.3°C 46% 9.2 mph WSW14.8 kmh WSW 13.6 mph21.9 kmh 30.19 in1022.4 mb 0.00 in0.0 mm 0.00 in0.0 mm 0.00 in0.0 mm
09:25 PM 62.6°F17.0°C 41.5°F5.3°C 46% 8.7 mph WSW14.0 kmh WSW 14.1 mph22.7 kmh 30.19 in1022.4 mb 0.00 in0.0 mm 0.00 in0.0 mm 0.00 in0.0 mm
09:30 PM 62.4°F16.9°C 41.4°F5.2°C 46% 7.4 mph WSW11.9 kmh WSW 17.0 mph27.4 kmh 30.19 in1022.4 mb 0.00 in0.0 mm 0.00 in0.0 mm 0.00 in0.0 mm
09:35 PM 62.6°F17.0°C 41.5°F5.3°C 46% 7.9 mph WSW12.7 kmh WSW 14.5 mph23.3 kmh 30.19 in1022.4 mb 0.00 in0.0 mm 0.00 in0.0 mm 0.00 in0.0 mm
09:40 PM 62.7°F17.1°C 41.3°F5.2°C 45% 9.2 mph SW14.8 kmh SW 17.4 mph28.0 kmh 30.20 in1022.7 mb 0.00 in0.0 mm 0.00 in0.0 mm 0.00 in0.0 mm
09:45 PM 62.6°F17.0°C 41.0°F5.0°C 45% 9.5 mph SW15.3 kmh SW 21.5 mph34.6 kmh 30.21 in1023.0 mb 0.00 in0.0 mm 0.00 in0.0 mm 0.00 in0.0 mm
09:50 PM 62.6°F17.0°C 41.0°F5.0°C 45% 10.3 mph SW16.6 kmh SW 20.4 mph32.8 kmh 30.21 in1023.0 mb 0.00 in0.0 mm 0.00 in0.0 mm 0.00 in0.0 mm
09:55 PM 62.6°F17.0°C 40.9°F4.9°C 45% 10.9 mph SW17.5 kmh SW 19.2 mph30.9 kmh 30.21 in1023.0 mb 0.00 in0.0 mm 0.00 in0.0 mm 0.00 in0.0 mm
10:00 PM 62.5°F16.9°C 40.8°F4.9°C 45% 12.5 mph SW20.1 kmh SW 19.7 mph31.7 kmh 30.21 in1023.0 mb 0.00 in0.0 mm 0.00 in0.0 mm 0.00 in0.0 mm
10:05 PM 62.4°F16.9°C 40.8°F4.9°C 45% 12.3 mph SW19.8 kmh SW 19.0 mph30.6 kmh 30.21 in1023.0 mb 0.00 in0.0 mm 0.00 in0.0 mm 0.00 in0.0 mm
10:10 PM 62.4°F16.9°C 40.8°F4.9°C 45% 11.9 mph SW19.2 kmh SW 20.4 mph32.8 kmh 30.21 in1023.0 mb 0.00 in0.0 mm 0.00 in0.0 mm 0.00 in0.0 mm
10:15 PM 62.4°F16.9°C 40.8°F4.9°C 45% 12.3 mph SW19.8 kmh SW 24.6 mph39.6 kmh 30.21 in1023.0 mb 0.00 in0.0 mm 0.00 in0.0 mm 0.00 in0.0 mm
10:20 PM 62.2°F16.8°C 40.7°F4.8°C 45% 13.4 mph SW21.6 kmh SW 19.0 mph30.6 kmh 30.21 in1023.0 mb 0.00 in0.0 mm 0.00 in0.0 mm 0.00 in0.0 mm
10:25 PM 62.1°F16.7°C 41.1°F5.1°C 46% 13.4 mph SW21.6 kmh SW 18.1 mph29.1 kmh 30.22 in1023.4 mb 0.00 in0.0 mm 0.00 in0.0 mm 0.00 in0.0 mm
10:30 PM 62.0°F16.7°C 41.0°F5.0°C 46% 13.4 mph SW21.6 kmh SW 18.1 mph29.1 kmh 30.22 in1023.4 mb 0.00 in0.0 mm 0.00 in0.0 mm 0.00 in0.0 mm
10:35 PM 61.9°F16.6°C 40.9°F4.9°C 46% 13.3 mph SW21.4 kmh SW 22.6 mph36.4 kmh 30.22 in1023.4 mb 0.00 in0.0 mm 0.00 in0.0 mm 0.00 in0.0 mm
10:40 PM 61.9°F16.6°C 40.9°F4.9°C 46% 13.0 mph SW20.9 kmh SW 23.5 mph37.8 kmh 30.22 in1023.4 mb 0.00 in0.0 mm 0.00 in0.0 mm 0.00 in0.0 mm
10:45 PM 61.9°F16.6°C 40.9°F4.9°C 46% 12.9 mph SW20.8 kmh SW 19.7 mph31.7 kmh 30.22 in1023.4 mb 0.00 in0.0 mm 0.00 in0.0 mm 0.00 in0.0 mm
10:50 PM 61.9°F16.6°C 40.9°F4.9°C 46% 12.5 mph SW20.1 kmh SW 18.1 mph29.1 kmh 30.22 in1023.4 mb 0.00 in0.0 mm 0.00 in0.0 mm 0.00 in0.0 mm
10:55 PM 61.9°F16.6°C 40.9°F4.9°C 46% 12.2 mph SW19.6 kmh SW 15.9 mph25.6 kmh 30.23 in1023.7 mb 0.00 in0.0 mm 0.00 in0.0 mm 0.00 in0.0 mm
11:00 PM 61.8°F16.6°C 40.8°F4.9°C 46% 11.4 mph SW18.3 kmh SW 13.4 mph21.6 kmh 30.23 in1023.7 mb 0.00 in0.0 mm 0.00 in0.0 mm 0.00 in0.0 mm
11:05 PM 61.5°F16.4°C 41.1°F5.1°C 47% 10.8 mph SW17.4 kmh SW 13.4 mph21.6 kmh 30.23 in1023.7 mb 0.00 in0.0 mm 0.00 in0.0 mm 0.00 in0.0 mm
11:10 PM 61.4°F16.3°C 41.0°F5.0°C 47% 9.2 mph SW14.8 kmh SW 15.7 mph25.3 kmh 30.24 in1024.0 mb 0.00 in0.0 mm 0.00 in0.0 mm 0.00 in0.0 mm
11:15 PM 61.3°F16.3°C 40.9°F4.9°C 47% 9.4 mph SW15.1 kmh SW 15.7 mph25.3 kmh 30.24 in1024.0 mb 0.00 in0.0 mm 0.00 in0.0 mm 0.00 in0.0 mm
11:20 PM 61.2°F16.2°C 41.1°F5.1°C 48% 10.1 mph SW16.3 kmh SW 14.5 mph23.3 kmh 30.24 in1024.0 mb 0.00 in0.0 mm 0.00 in0.0 mm 0.00 in0.0 mm
11:25 PM 61.2°F16.2°C 41.3°F5.2°C 48% 9.8 mph SW15.8 kmh SW 14.8 mph23.8 kmh 30.25 in1024.4 mb 0.00 in0.0 mm 0.00 in0.0 mm 0.00 in0.0 mm
11:30 PM 61.0°F16.1°C 41.2°F5.1°C 48% 9.2 mph WSW14.8 kmh WSW 15.7 mph25.3 kmh 30.25 in1024.4 mb 0.00 in0.0 mm 0.00 in0.0 mm 0.00 in0.0 mm
11:35 PM 61.0°F16.1°C 41.1°F5.1°C 48% 9.6 mph WSW15.4 kmh WSW 17.9 mph28.8 kmh 30.25 in1024.4 mb 0.00 in0.0 mm 0.00 in0.0 mm 0.00 in0.0 mm
11:40 PM 61.0°F16.1°C 41.3°F5.2°C 48% 10.7 mph WSW17.2 kmh WSW 14.1 mph22.7 kmh 30.25 in1024.4 mb 0.00 in0.0 mm 0.00 in0.0 mm 0.00 in0.0 mm
11:45 PM 60.8°F16.0°C 41.5°F5.3°C 49% 10.1 mph WSW16.3 kmh WSW 17.0 mph27.4 kmh 30.25 in1024.4 mb 0.00 in0.0 mm 0.00 in0.0 mm 0.00 in0.0 mm
11:50 PM 60.6°F15.9°C 41.4°F5.2°C 49% 8.5 mph SW13.7 kmh SW 16.8 mph27.0 kmh 30.25 in1024.4 mb 0.00 in0.0 mm 0.00 in0.0 mm 0.00 in0.0 mm
11:55 PM 60.6°F15.9°C 41.4°F5.2°C 49% 9.3 mph SW15.0 kmh SW 14.8 mph23.8 kmh 30.26 in1024.7 mb 0.00 in0.0 mm 0.00 in0.0 mm 0.00 in0.0 mm